Thunderstorms From: 15-12-2017 06:00 Until: 16-12-2017 06:00 warning for: Thunderstorms Level: Yellow info button

Although rather usual in this region, locally or potentially dangerous phenomena are expected. (such as local winds, summer thunderstorms, rising streams or high waves) Be aware and pay attention to the latest weather updates, especially if you carry out activities exposed to weather or close to a stream or shoreline. 


Meteo18 Weather Cam more information Meteo18 Weather Cam


warning for Thunderstorms more information blitzortung!


Rain radar more information rain snow radar


Visit our other weather sites:

Template documentation
and downloads

And another site



Weather Underground History page Text

Daily Summary for May 18, 2017 Units:  English    Metric   Both
« Previous Day
Next Day »
Daily Weekly Monthly Yearly Custom
  High: Low: Average:
Temperature: 72.1 °F 50.7 °F 60.8 °F
Dew Point: 63.1 °F 49.1 °F 57.2 °F
Humidity: 96 % 65 % 89 %
Wind Speed: 20 mph 0 mph 3.4 mph
Wind Gust: 33 mph - -
Wind:- - SSW
Pressure: 30 in 29.7 in -
Precipitation: 0.91 in    
Historical Graphs
 
 
Tabular Data for May 18, 2017
Time Temperature Dew Point Pressure Wind Wind Speed Wind Gust Humidity Rainfall Rate (Hourly)
00:02 65.1 °F 58.8 °F 30 in SW 5 mph 11 mph 80 % 0 in
00:07 64.9 °F 59 °F 30 in West 2 mph 8 mph 81 % 0 in
00:12 64.8 °F 59.2 °F 30 in West 1 mph 7 mph 82 % 0 in
00:17 64.6 °F 59 °F 30 in WSW 1 mph 7 mph 82 % 0 in
00:22 64.6 °F 59.4 °F 30 in SW 2 mph 7 mph 83 % 0 in
00:32 64.6 °F 59.7 °F 30 in SW 5 mph 5 mph 84 % 0 in
00:42 63.7 °F 60.1 °F 30 in SSW 7 mph 8 mph 88 % 0.01 in
00:47 63 °F 59.9 °F 30 in WSW 9 mph 11 mph 90 % 0.02 in
00:52 62.4 °F 59.7 °F 30 in SSW 5 mph 11 mph 91 % 0.07 in
00:57 62.2 °F 59.9 °F 30 in WSW 2 mph 11 mph 92 % 0.1 in
01:02 62.2 °F 60.3 °F 30 in SW 5 mph 11 mph 93 % 0.12 in
01:07 62.1 °F 60.1 °F 30 in SW 2 mph 9 mph 93 % 0.13 in
01:12 62.1 °F 60.1 °F 30 in Calm   7 mph 93 % 0.13 in
01:22 62.1 °F 60.3 °F 30 in SW 1 mph 5 mph 94 % 0.14 in
01:27 62.1 °F 60.3 °F 30 in SW 2 mph 5 mph 94 % 0.14 in
01:32 62.1 °F 60.3 °F 30 in SW 1 mph 5 mph 94 % 0.14 in
01:37 62.1 °F 60.3 °F 30 in SW 6 mph 6 mph 94 % 0.14 in
01:42 62.1 °F 60.3 °F 30 in WSW 3 mph 8 mph 94 % 0.13 in
01:47 62.1 °F 60.6 °F 30 in SW 4 mph 8 mph 95 % 0.09 in
01:52 61.9 °F 60.4 °F 30 in SW 3 mph 8 mph 95 % 0.06 in
01:57 61.7 °F 60.3 °F 30 in SSE 4 mph 8 mph 95 % 0.03 in
02:02 61.7 °F 60.3 °F 30 in SW 7 mph 9 mph 95 % 0.02 in
02:12 61.7 °F 60.3 °F 30 in SW 5 mph 10 mph 95 % 0.01 in
02:17 61.7 °F 60.3 °F 30 in SW 4 mph 10 mph 95 % 0 in
02:22 61.7 °F 60.3 °F 30 in South 2 mph 9 mph 95 % 0 in
02:27 61.7 °F 60.3 °F 30 in SSW 5 mph 9 mph 95 % 0 in
02:32 61.5 °F 60.1 °F 30 in SSW 2 mph 7 mph 95 % 0 in
02:37 61.5 °F 60.1 °F 30 in SSW 2 mph 7 mph 95 % 0 in
02:42 61.5 °F 60.1 °F 30 in SW 4 mph 8 mph 95 % 0.01 in
02:47 61.3 °F 59.9 °F 30 in SSW 6 mph 8 mph 95 % 0.01 in
02:52 61.3 °F 59.9 °F 30 in SW 3 mph 9 mph 95 % 0.01 in
02:57 61.3 °F 59.9 °F 30 in SW 7 mph 9 mph 95 % 0.02 in
03:02 61.2 °F 59.7 °F 30 in SW 3 mph 9 mph 95 % 0.02 in
03:07 61.2 °F 59.7 °F 30 in SSE 3 mph 9 mph 95 % 0.02 in
03:12 61.2 °F 59.7 °F 30 in SSW 3 mph 9 mph 95 % 0.02 in
03:17 61.2 °F 60.1 °F 30 in SW 2 mph 8 mph 96 % 0.02 in
03:22 61.2 °F 60.1 °F 30 in South 2 mph 7 mph 96 % 0.02 in
03:27 61.2 °F 60.1 °F 30 in SSW 1 mph 7 mph 96 % 0.03 in
03:32 61 °F 59.9 °F 30 in WSW 3 mph 7 mph 96 % 0.03 in
03:37 61 °F 59.9 °F 30 in West 4 mph 7 mph 96 % 0.04 in
03:42 61 °F 59.9 °F 30 in SW 3 mph 7 mph 96 % 0.04 in
03:47 61 °F 59.9 °F 30 in West 3 mph 7 mph 96 % 0.04 in
03:52 61 °F 59.5 °F 30 in WSW 6 mph 7 mph 95 % 0.04 in
03:57 60.8 °F 59.4 °F 30 in SW 1 mph 7 mph 95 % 0.03 in
04:02 60.8 °F 59.4 °F 30 in SW 3 mph 7 mph 95 % 0.03 in
04:07 60.6 °F 59.2 °F 30 in SW 4 mph 8 mph 95 % 0.03 in
04:12 60.6 °F 59.2 °F 30 in Calm   8 mph 95 % 0.02 in
04:17 60.6 °F 59.2 °F 30 in SSW 2 mph 8 mph 95 % 0.02 in
04:22 60.6 °F 59.2 °F 30 in SW 4 mph 8 mph 95 % 0.02 in
04:27 60.6 °F 59.2 °F 30 in WSW 1 mph 6 mph 95 % 0.02 in
04:32 60.6 °F 59.2 °F 30 in WSW 1 mph 6 mph 95 % 0.01 in
04:37 60.6 °F 59.2 °F 30 in Calm   6 mph 95 % 0.02 in
04:42 60.6 °F 59.2 °F 30 in WNW 2 mph 4 mph 95 % 0.01 in
04:47 60.3 °F 58.5 °F 30 in West 3 mph 4 mph 94 % 0.01 in
04:52 59.9 °F 58.1 °F 30 in WNW 4 mph 4 mph 94 % 0.01 in
04:57 59.7 °F 57.9 °F 30 in West 1 mph 6 mph 94 % 0.01 in
05:02 59.5 °F 57.7 °F 30 in Calm   6 mph 94 % 0.01 in
05:12 59.5 °F 57.7 °F 30 in Calm   6 mph 94 % 0.02 in
05:17 59.5 °F 57.7 °F 30 in Calm   3 mph 94 % 0.02 in
05:22 59.5 °F 57.7 °F 30 in Calm   3 mph 94 % 0.02 in
05:32 59.5 °F 57.7 °F 30 in Calm   1 mph 94 % 0.02 in
05:37 59.4 °F 57.6 °F 30 in Calm   1 mph 94 % 0.02 in
05:42 59.2 °F 57.4 °F 30 in WNW 1 mph 1 mph 94 % 0.02 in
05:47 59.2 °F 57.2 °F 30 in SW 1 mph 3 mph 93 % 0.03 in
05:52 59 °F 57 °F 30 in Calm   3 mph 93 % 0.03 in
06:02 58.6 °F 56.7 °F 30 in Calm   3 mph 93 % 0.04 in
06:12 58.6 °F 56.7 °F 30 in Calm   2 mph 93 % 0.04 in
06:17 58.6 °F 56.7 °F 30 in Calm   1 mph 93 % 0.04 in
06:22 58.8 °F 56.8 °F 30 in Calm   1 mph 93 % 0.04 in
06:32 58.8 °F 57 °F 30 in Calm     94 % 0.03 in
06:37 59 °F 57.2 °F 30 in Calm     94 % 0.02 in
06:42 59 °F 57.2 °F 30 in Calm     94 % 0.02 in
06:47 58.8 °F 57 °F 30 in SW 1 mph 4 mph 94 % 0.02 in
06:57 58.5 °F 56.7 °F 30 in SSW 2 mph 4 mph 94 % 0.02 in
07:02 58.3 °F 56.5 °F 30 in SSW 1 mph 4 mph 94 % 0.02 in
07:12 58.3 °F 56.8 °F 30 in Calm   4 mph 95 % 0.03 in
07:17 58.3 °F 56.8 °F 30 in Calm   3 mph 95 % 0.05 in
07:22 58.5 °F 57 °F 30 in Calm   3 mph 95 % 0.06 in
07:32 58.5 °F 57 °F 30 in Calm     95 % 0.06 in
07:42 58.3 °F 56.8 °F 30 in Calm     95 % 0.07 in
07:52 58.3 °F 56.8 °F 30 in Calm     95 % 0.07 in
07:57 58.3 °F 56.8 °F 30 in Calm     95 % 0.08 in
08:02 58.3 °F 56.8 °F 30 in Calm     95 % 0.09 in
08:12 58.3 °F 56.8 °F 30 in Calm     95 % 0.09 in
08:17 58.3 °F 56.8 °F 30 in Calm     95 % 0.09 in
08:27 58.3 °F 56.8 °F 30 in Calm     95 % 0.09 in
08:32 58.3 °F 56.8 °F 30 in Calm     95 % 0.09 in
08:37 58.3 °F 56.8 °F 30 in Calm     95 % 0.09 in
08:47 58.5 °F 57.4 °F 30 in Calm     96 % 0.09 in
08:52 58.6 °F 57.6 °F 30 in Calm     96 % 0.09 in
09:02 58.5 °F 57 °F 30 in Calm     95 % 0.12 in
09:12 58.3 °F 57.2 °F 30 in Calm     96 % 0.12 in
09:17 58.5 °F 57.4 °F 30 in Calm   1 mph 96 % 0.12 in
09:22 58.6 °F 57.6 °F 30 in Calm   1 mph 96 % 0.12 in
09:32 58.8 °F 57.7 °F 30 in Calm     96 % 0.11 in
09:42 59 °F 57.9 °F 30 in Calm     96 % 0.1 in
09:47 59.2 °F 58.1 °F 30 in Calm     96 % 0.09 in
09:52 59.2 °F 58.1 °F 30 in Calm     96 % 0.09 in
10:02 59.2 °F 58.1 °F 30 in Calm     96 % 0.06 in
10:12 59.2 °F 58.1 °F 30 in Calm   2 mph 96 % 0.02 in
10:17 59.4 °F 58.3 °F 30 in Calm   2 mph 96 % 0.01 in
10:22 59.2 °F 58.1 °F 30 in Calm   1 mph 96 % 0.01 in
10:32 59.2 °F 58.1 °F 30 in Calm   2 mph 96 % 0 in
10:42 59.4 °F 58.3 °F 30 in Calm   3 mph 96 % 0 in
10:47 59.7 °F 58.6 °F 30 in Calm   2 mph 96 % 0 in
10:52 60.1 °F 58.6 °F 30 in Calm   2 mph 95 % 0 in
10:57 59.9 °F 58.5 °F 30 in Calm   2 mph 95 % 0 in
11:02 60.3 °F 58.8 °F 30 in Calm   2 mph 95 % 0 in
11:12 60.6 °F 58.8 °F 29.9 in Calm   2 mph 94 % 0 in
11:17 60.6 °F 58.8 °F 29.9 in ENE 2 mph 2 mph 94 % 0 in
11:22 60.6 °F 58.6 °F 29.9 in Calm   3 mph 93 % 0 in
11:32 61 °F 58.6 °F 29.9 in Calm   3 mph 92 % 0 in
11:42 61.2 °F 58.5 °F 29.9 in ENE 1 mph 3 mph 91 % 0 in
11:52 61.5 °F 58.8 °F 29.9 in ENE 1 mph 3 mph 91 % 0 in
12:02 62.4 °F 59.7 °F 29.9 in South 1 mph 4 mph 91 % 0 in
12:07 63.1 °F 59.5 °F 29.9 in Calm   3 mph 88 % 0 in
12:12 63.3 °F 59.7 °F 29.9 in ENE 1 mph 3 mph 88 % 0 in
12:17 63.3 °F 59.4 °F 29.9 in Calm   3 mph 87 % 0 in
12:22 63.3 °F 59.7 °F 29.9 in ENE 1 mph 2 mph 88 % 0 in
12:32 63.3 °F 60.1 °F 29.9 in ENE 4 mph 4 mph 89 % 0 in
12:42 63.3 °F 60.3 °F 29.9 in SE 2 mph 5 mph 90 % 0 in
12:47 64 °F 60.8 °F 29.9 in East 2 mph 5 mph 89 % 0 in
12:52 64.2 °F 60.3 °F 29.9 in ENE 4 mph 5 mph 87 % 0 in
12:57 64.8 °F 61.5 °F 29.9 in NE 2 mph 5 mph 89 % 0 in
13:02 65.1 °F 61.2 °F 29.9 in NNE 6 mph 6 mph 87 % 0 in
13:07 65.5 °F 61.5 °F 29.9 in SSW 2 mph 8 mph 87 % 0 in
13:12 65.8 °F 61.2 °F 29.9 in SE 3 mph 8 mph 85 % 0 in
13:17 66 °F 61.3 °F 29.9 in ESE 3 mph 8 mph 85 % 0 in
13:22 66.4 °F 61.3 °F 29.9 in ESE 5 mph 5 mph 84 % 0 in
13:27 66.4 °F 60.8 °F 29.9 in ENE 2 mph 6 mph 82 % 0 in
13:32 66.6 °F 61 °F 29.9 in East 2 mph 6 mph 82 % 0 in
13:42 66.7 °F 61.7 °F 29.9 in ENE 4 mph 7 mph 84 % 0 in
13:47 67.3 °F 62.2 °F 29.9 in East 3 mph 8 mph 84 % 0 in
13:52 68.2 °F 62.4 °F 29.9 in ENE 6 mph 8 mph 82 % 0 in
13:57 67.8 °F 61.7 °F 29.9 in SSE 2 mph 9 mph 81 % 0 in
14:02 68.4 °F 61.9 °F 29.9 in NE 3 mph 9 mph 80 % 0 in
14:07 68.4 °F 61.9 °F 29.9 in ENE 2 mph 10 mph 80 % 0 in
14:12 69.3 °F 62.1 °F 29.9 in ESE 1 mph 6 mph 78 % 0 in
14:17 70 °F 62.1 °F 29.9 in ENE 3 mph 8 mph 76 % 0 in
14:22 70.2 °F 61.2 °F 29.9 in East 1 mph 8 mph 73 % 0 in
14:27 70.5 °F 61.5 °F 29.9 in SW 4 mph 8 mph 73 % 0 in
14:32 71.1 °F 61.5 °F 29.9 in ENE 4 mph 8 mph 72 % 0 in
14:37 70.9 °F 61 °F 29.8 in SE 3 mph 8 mph 71 % 0 in
14:42 71.1 °F 62.4 °F 29.8 in ESE 3 mph 10 mph 74 % 0 in
14:47 70.9 °F 60.6 °F 29.8 in ESE 2 mph 10 mph 70 % 0 in
14:52 71.1 °F 63.1 °F 29.8 in ESE 4 mph 10 mph 76 % 0 in
15:02 71.4 °F 61.5 °F 29.8 in NE 2 mph 9 mph 71 % 0 in
15:07 72 °F 62.4 °F 29.8 in NE 4 mph 9 mph 72 % 0 in
15:12 72 °F 62.4 °F 29.8 in ESE 3 mph 9 mph 72 % 0 in
15:17 71.8 °F 60.6 °F 29.8 in SSW 4 mph 9 mph 68 % 0 in
15:22 72 °F 59.9 °F 29.8 in SE 4 mph 10 mph 66 % 0 in
15:27 71.4 °F 60.8 °F 29.8 in ENE 2 mph 10 mph 69 % 0 in
15:32 71.4 °F 60.8 °F 29.8 in SSW 7 mph 10 mph 69 % 0 in
15:37 71.8 °F 61.5 °F 29.8 in SE 3 mph 10 mph 70 % 0 in
15:42 72 °F 61.2 °F 29.8 in SSE 2 mph 9 mph 69 % 0 in
15:47 72.1 °F 61.3 °F 29.8 in ESE 5 mph 10 mph 69 % 0 in
15:57 72 °F 61.7 °F 29.8 in SE 1 mph 10 mph 70 % 0 in
16:02 72 °F 59.5 °F 29.8 in South 3 mph 10 mph 65 % 0 in
16:12 71.1 °F 58.6 °F 29.8 in ESE 3 mph 13 mph 65 % 0 in
16:17 70.9 °F 60.3 °F 29.8 in SE 6 mph 11 mph 69 % 0 in
16:22 71.2 °F 60.6 °F 29.8 in WSW 5 mph 11 mph 69 % 0 in
16:27 71.1 °F 59.5 °F 29.8 in SE 7 mph 11 mph 67 % 0 in
16:32 71.2 °F 61 °F 29.8 in SSE 1 mph 11 mph 70 % 0 in
16:37 71.1 °F 59.2 °F 29.8 in ESE 7 mph 12 mph 66 % 0 in
16:42 71.2 °F 60.1 °F 29.8 in SE 3 mph 14 mph 68 % 0 in
16:47 71.2 °F 61 °F 29.8 in SSE 3 mph 14 mph 70 % 0 in
16:52 71.4 °F 60.8 °F 29.8 in ESE 5 mph 14 mph 69 % 0 in
16:57 71.2 °F 60.1 °F 29.8 in SSE 2 mph 10 mph 68 % 0 in
17:02 71.1 °F 59.9 °F 29.8 in SE 2 mph 10 mph 68 % 0 in
17:07 70.7 °F 59.2 °F 29.8 in SE 6 mph 10 mph 67 % 0 in
17:12 70.3 °F 58.8 °F 29.8 in ESE 3 mph 13 mph 67 % 0 in
17:17 70.2 °F 57.9 °F 29.7 in ESE 5 mph 14 mph 65 % 0 in
17:22 69.8 °F 57.9 °F 29.8 in SSE 2 mph 14 mph 66 % 0 in
17:32 67.1 °F 59.7 °F 29.8 in West 20 mph 20 mph 77 % 0 in
17:37 63.9 °F 58.6 °F 29.8 in West 12 mph 24 mph 83 % 0 in
17:42 60.8 °F 56.8 °F 29.8 in West 9 mph 33 mph 87 % 0.12 in
17:47 59.5 °F 56.7 °F 29.8 in West 9 mph 33 mph 90 % 0.15 in
17:57 58.1 °F 55.4 °F 29.8 in West 9 mph 17 mph 91 % 0.2 in
18:02 57.7 °F 55.2 °F 29.8 in WNW 12 mph 17 mph 91 % 0.21 in
18:07 57.4 °F 54.9 °F 29.8 in West 11 mph 17 mph 91 % 0.21 in
18:22 56.7 °F 54.1 °F 29.8 in WNW 7 mph 20 mph 91 % 0.22 in
18:32 56.5 °F 54 °F 29.8 in West 11 mph 19 mph 91 % 0.22 in
18:42 56.5 °F 53.6 °F 29.8 in West 8 mph 17 mph 90 % 0.22 in
18:47 56.5 °F 53.6 °F 29.8 in WNW 5 mph 18 mph 90 % 0.07 in
18:52 56.5 °F 53.2 °F 29.8 in NW 5 mph 18 mph 89 % 0.05 in
18:57 56.3 °F 53.4 °F 29.9 in WNW 3 mph 18 mph 90 % 0.02 in
19:02 56.3 °F 53.4 °F 29.9 in WNW 5 mph 18 mph 90 % 0.01 in
19:07 56.1 °F 53.2 °F 29.9 in West 7 mph 19 mph 90 % 0.01 in
19:12 56.1 °F 53.2 °F 29.9 in SW 4 mph 15 mph 90 % 0 in
19:17 56.1 °F 53.2 °F 29.9 in West 6 mph 15 mph 90 % 0 in
19:22 56.1 °F 53.2 °F 29.9 in WNW 1 mph 15 mph 90 % 0 in
19:27 55.9 °F 53.1 °F 29.9 in NW 6 mph 11 mph 90 % 0 in
19:37 55.8 °F 52.5 °F 29.9 in WSW 11 mph 13 mph 89 % 0 in
19:42 55.4 °F 52.2 °F 29.9 in West 6 mph 17 mph 89 % 0 in
19:47 55.2 °F 51.8 °F 29.9 in WNW 8 mph 17 mph 88 % 0 in
19:57 54.7 °F 51.3 °F 29.9 in WSW 4 mph 15 mph 88 % 0 in
20:02 54.7 °F 51.3 °F 29.9 in WNW 7 mph 15 mph 88 % 0 in
20:12 54.3 °F 51.1 °F 29.9 in West 3 mph 10 mph 89 % 0.01 in
20:22 54.1 °F 51.3 °F 29.9 in WNW 6 mph 9 mph 90 % 0.02 in
20:27 53.8 °F 50.9 °F 29.9 in WNW 6 mph 14 mph 90 % 0.02 in
20:32 53.6 °F 50.4 °F 29.9 in WSW 6 mph 14 mph 89 % 0.02 in
20:37 53.4 °F 50.2 °F 29.9 in WSW 8 mph 14 mph 89 % 0.02 in
20:47 53.2 °F 50 °F 29.9 in West 10 mph 13 mph 89 % 0.03 in
20:52 52.9 °F 50 °F 29.9 in WNW 10 mph 13 mph 90 % 0.03 in
20:57 52.5 °F 50 °F 29.9 in WNW 4 mph 13 mph 91 % 0.04 in
21:02 52.3 °F 50 °F 29.9 in West 2 mph 13 mph 92 % 0.04 in
21:07 52.3 °F 50.4 °F 29.9 in SW 5 mph 11 mph 93 % 0.04 in
21:12 52.2 °F 50.2 °F 29.9 in West 8 mph 10 mph 93 % 0.03 in
21:17 52.3 °F 50 °F 29.9 in West 3 mph 16 mph 92 % 0.03 in
21:22 52.3 °F 50 °F 29.9 in West 5 mph 16 mph 92 % 0.02 in
21:27 52.3 °F 50 °F 29.9 in SW 2 mph 16 mph 92 % 0.02 in
21:32 52.5 °F 50.5 °F 29.9 in WSW 4 mph 16 mph 93 % 0.02 in
21:37 52.5 °F 50.5 °F 29.9 in SW 5 mph 9 mph 93 % 0.02 in
21:42 52.5 °F 50.5 °F 29.9 in WSW 5 mph 10 mph 93 % 0.02 in
21:47 52.5 °F 50.5 °F 29.9 in WSW 6 mph 11 mph 93 % 0.02 in
21:52 52.5 °F 50.5 °F 30 in WSW 7 mph 12 mph 93 % 0.02 in
21:57 52.3 °F 50.4 °F 30 in WNW 6 mph 12 mph 93 % 0.02 in
22:02 52.2 °F 50.2 °F 30 in WSW 9 mph 12 mph 93 % 0.03 in
22:12 51.8 °F 49.8 °F 30 in West 5 mph 13 mph 93 % 0.03 in
22:17 51.6 °F 49.6 °F 30 in SW 2 mph 13 mph 93 % 0.04 in
22:22 51.6 °F 49.6 °F 30 in WSW 4 mph 15 mph 93 % 0.04 in
22:27 51.6 °F 49.6 °F 30 in WSW 6 mph 15 mph 93 % 0.05 in
22:32 51.6 °F 49.6 °F 30 in SW 6 mph 15 mph 93 % 0.06 in
22:37 51.6 °F 49.6 °F 30 in WSW 9 mph 13 mph 93 % 0.06 in
22:42 51.6 °F 49.6 °F 30 in West 7 mph 16 mph 93 % 0.07 in
22:52 51.6 °F 50 °F 30 in WSW 6 mph 16 mph 94 % 0.07 in
23:02 51.3 °F 49.3 °F 30 in South 4 mph 12 mph 93 % 0.06 in
23:07 51.3 °F 49.3 °F 30 in SW 10 mph 13 mph 93 % 0.06 in
23:12 51.1 °F 49.5 °F 30 in SSW 4 mph 14 mph 94 % 0.05 in
23:17 51.1 °F 49.5 °F 30 in West 6 mph 14 mph 94 % 0.06 in
23:22 51.1 °F 49.5 °F 30 in SW 7 mph 14 mph 94 % 0.05 in
23:27 51.1 °F 49.5 °F 30 in SW 4 mph 11 mph 94 % 0.04 in
23:32 50.9 °F 49.3 °F 30 in SSW 6 mph 11 mph 94 % 0.05 in
23:37 50.9 °F 49.3 °F 30 in SW 15 mph 15 mph 94 % 0.04 in
23:42 50.7 °F 49.1 °F 30 in SW 5 mph 15 mph 94 % 0.03 in
23:47 50.7 °F 49.1 °F 30 in WSW 3 mph 15 mph 94 % 0.04 in
23:52 50.7 °F 49.1 °F 30 in West 10 mph 15 mph 94 % 0.03 in
23:57 50.7 °F 49.1 °F 30 in WSW 8 mph 15 mph 94 % 0.04 in
Meteo18
Compliments of Weather Underground - 4 mb

Script developed by  Jim McMurry - jmcmurry@mwt.net Adapted for the template by  Wim van der Kuil - Leuven-Template.eu

You find our weather info also at:

European Weather Network

Weather Underground

Equipment we use:

Weather-station
Davis Vue

Weather-program
Meteohub

Weather-server
Raspberry PI 2 B+

Provider
1 and 1

Davis Vue

Meteohub

Raspberry PI 2 B+

1 and 1